Satellite: CASTOR
Catalog number: 35694
Epoch time:      10230.44082147
Element set:     655
Inclination:      051.5930 deg
RA of node:       222.0149 deg
Eccentricity:    0.0004218
Arg of perigee:   308.0851 deg
Mean anomaly:     053.0105 deg
Mean motion:   16.48877011 rev/day
Decay rate:   7.179566e-02 rev/day^2
Epoch rev:            6110
Checksum:              273

Satellite: METEOR-M
Catalog number: 35865
Epoch time:      10273.69172490
Element set:     702
Inclination:      098.7460 deg
RA of node:       326.6728 deg
Eccentricity:    0.0003356
Arg of perigee:   058.8938 deg
Mean anomaly:     301.2550 deg
Mean motion:   14.21831794 rev/day
Decay rate:       1.76e-06 rev/day^2
Epoch rev:            5371
Checksum:              309

Satellite: RS-38
Catalog number: 35869
Epoch time:      10273.79242652
Element set:     713
Inclination:      098.7452 deg
RA of node:       326.8123 deg
Eccentricity:    0.0005437
Arg of perigee:   063.0843 deg
Mean anomaly:     297.0870 deg
Mean motion:   14.21989635 rev/day
Decay rate:       1.77e-06 rev/day^2
Epoch rev:            5373
Checksum:              330

/EX


_______________________________________________
Via the Keps mailing list courtesy of AMSAT-NA
http://amsat.org/mailman/listinfo/keps

--- ViaMAIL!/WC v1.60d
 * Origin: Chowdanet (401-724-4410) telnet://chowdanet.com  (1:323/120)